Wind_Speed
44 43 43 42 42 42 42 42 41 41 40 40 39 38 37 36 36 35 34 32 31 30 29 28 28 27 27 26 26 25 25 24 24 23 23 23 22 22 22 22 22 22 21 21 21 21 21 21 21 20 20 20 20 19 19 19 19 18 18 18 18 18 18 18 18 18 18 17 15 15 16 17 16 14 10 9 10 12 15 19 22 22 21 19 17 15 14 13
45 44 44 43 43 42 43 43 43 43 42 42 41 39 39 38 37 36 35 34 33 32 31 30 29 28 28 28 27 27 26 26 25 25 24 24 23 23 23 23 23 22 22 21 21 21 21 21 21 21 20 20 20 20 19 19 19 19 18 18 19 18 18 18 18 18 18 17 16 15 15 16 16 15 13 11 11 12 13 17 20 23 24 23 21 20 18 17
46 45 45 44 44 43 44 44 44 44 44 44 43 42 41 40 39 38 37 35 34 33 32 31 30 29 29 29 28 28 27 27 27 26 26 25 25 24 24 24 24 23 23 22 22 22 22 22 22 21 21 21 21 20 19 19 19 19 19 19 19 18 18 18 18 18 18 18 17 16 16 16 15 15 14 13 14 14 13 15 18 20 23 24 24 23 22 20
47 46 46 45 45 44 44 45 45 45 45 45 44 44 43 42 41 40 38 37 36 34 33 32 31 31 30 30 29 29 28 28 28 28 27 26 26 26 26 26 25 25 24 24 24 23 23 23 22 22 22 21 22 21 20 20 20 20 20 20 19 19 19 18 18 18 17 18 17 17 17 17 16 16 16 15 17 16 14 15 17 18 20 23 24 25 24 23
47 47 46 46 45 45 45 45 45 45 45 45 45 45 44 44 43 42 40 39 37 36 34 33 33 32 31 31 30 30 29 29 29 29 28 28 28 27 27 27 27 26 26 26 25 25 24 24 24 23 23 22 22 22 21 21 21 21 21 21 20 19 20 19 18 18 18 18 18 18 18 17 16 17 18 19 19 18 17 16 17 17 19 21 23 24 25 25
48 47 47 46 46 46 46 46 46 46 46 46 45 45 46 45 45 44 42 41 39 37 36 34 34 33 32 32 31 31 30 30 31 30 29 29 29 29 28 28 28 28 28 27 27 26 26 25 25 25 24 24 24 23 23 22 22 22 22 23 21 20 20 20 19 19 19 19 19 18 18 18 17 17 19 21 21 20 20 19 19 19 19 20 21 22 23 24
49 48 47 47 47 47 47 46 46 46 46 46 46 46 46 46 46 46 44 43 41 40 38 36 35 34 34 33 33 32 30 31 32 31 30 30 30 29 29 29 29 29 29 29 28 28 27 27 26 26 26 25 25 25 24 24 24 24 24 24 23 22 21 21 21 21 22 21 21 20 19 19 18 18 20 22 23 23 23 23 23 22 21 21 22 22 23 23
49 48 47 47 47 47 47 47 46 46 46 46 46 46 46 46 47 47 46 45 43 42 40 37 36 36 36 35 34 33 31 32 33 32 31 31 31 30 30 30 30 30 30 30 30 29 29 28 28 27 27 27 27 26 26 26 26 26 25 25 25 24 23 23 23 24 24 23 23 23 22 22 21 20 22 24 24 25 26 27 27 26 24 24 24 24 25 25
50 49 48 47 47 47 47 48 47 47 47 46 46 46 46 46 46 47 47 47 46 44 42 39 37 37 37 37 36 35 32 33 34 33 32 32 31 31 31 31 32 31 31 31 31 30 30 29 29 29 28 28 27 27 27 27 27 27 27 26 26 26 25 24 24 25 26 25 25 26 25 25 23 22 24 26 26 25 27 29 29 29 28 27 27 27 27 27
50 49 49 48 47 47 47 48 47 48 48 47 46 46 46 46 46 47 47 48 48 47 44 42 40 39 39 38 38 36 33 34 36 34 33 33 32 32 32 33 33 32 32 32 32 31 31 30 30 29 29 29 28 28 28 28 29 28 28 27 26 27 26 26 26 26 27 27 27 27 27 26 25 25 26 27 26 26 28 29 30 30 30 30 30 30 29 29
51 50 49 48 48 48 48 48 47 48 48 48 47 46 45 45 46 47 47 48 48 48 47 45 42 41 41 40 41 38 35 36 37 35 35 34 33 33 33 34 34 34 33 33 33 32 31 31 30 30 30 30 29 29 29 29 29 29 29 28 27 28 27 27 28 27 26 27 27 28 28 27 26 27 28 28 27 27 28 30 30 30 30 30 31 31 30 30
53 51 50 49 48 48 48 48 48 48 48 48 48 47 46 46 46 47 47 47 48 48 48 47 45 44 43 43 43 40 37 38 38 36 36 35 34 34 35 35 35 35 34 33 33 32 31 31 30 30 31 31 30 29 30 29 29 29 29 29 29 29 29 28 27 26 25 26 28 29 30 27 26 28 28 28 28 28 29 29 29 29 29 29 29 29 30 29
54 53 52 50 49 49 49 49 49 49 49 49 48 48 47 47 47 47 47 48 48 48 48 48 47 46 45 46 45 41 39 40 38 37 37 36 36 36 36 36 36 35 35 34 33 32 32 32 31 31 32 32 31 30 30 29 28 28 29 30 30 31 30 27 26 26 25 26 28 29 31 28 25 28 28 28 29 29 29 29 28 29 29 29 29 29 30 30
56 55 53 52 51 51 51 51 51 51 50 50 49 48 48 48 47 47 47 47 48 48 48 48 48 48 47 48 47 43 41 40 39 39 38 38 38 38 38 37 37 36 35 34 34 33 32 32 32 33 33 32 32 31 29 28 27 28 29 31 32 32 30 27 26 26 25 26 28 29 32 30 26 27 28 29 31 31 30 30 29 29 30 30 31 31 31 32
57 57 56 54 53 53 53 52 52 52 52 51 50 49 49 49 49 48 48 48 48 48 48 48 48 48 48 50 49 46 43 41 40 40 39 40 39 39 39 38 38 37 36 35 34 33 33 33 33 33 34 33 33 31 28 27 28 29 30 32 33 33 31 29 28 27 25 27 29 30 33 33 28 27 29 31 32 33 32 32 32 32 32 32 33 33 34 35
59 58 57 56 55 55 54 54 54 54 54 53 52 52 51 51 51 50 50 49 49 48 48 47 48 48 48 51 51 49 46 43 41 41 41 41 40 40 39 38 38 37 37 36 35 35 34 34 34 34 34 35 34 31 27 28 31 31 31 32 33 33 33 32 30 28 27 28 29 31 34 35 32 29 30 32 34 34 35 35 35 35 35 35 35 36 37 38
59 58 58 57 56 56 56 56 56 56 56 55 55 54 53 53 52 52 51 51 50 49 48 47 48 47 48 51 52 51 49 45 44 43 43 42 41 41 40 39 39 38 37 37 37 37 36 35 35 35 37 38 35 29 27 31 33 32 32 33 34 35 36 36 33 30 29 30 31 33 35 36 35 32 33 33 35 36 36 37 37 37 37 38 38 38 39 40
59 58 58 57 57 57 57 57 58 58 58 57 57 57 56 55 54 53 53 52 51 50 49 48 48 46 47 51 53 53 51 48 47 45 45 44 43 42 41 40 39 38 38 38 39 38 37 37 36 37 40 39 34 30 30 33 35 34 33 33 35 36 37 38 35 31 31 32 33 34 36 38 37 35 36 36 36 37 38 38 38 39 40 40 41 41 42 42
60 59 58 58 58 59 59 59 59 59 59 59 58 58 58 57 56 55 54 54 53 52 50 48 47 46 47 51 52 53 53 51 49 48 47 46 45 43 42 41 40 40 40 40 39 38 38 37 38 41 42 38 33 32 33 34 35 35 34 34 35 37 39 39 36 33 33 34 35 36 36 39 39 37 38 38 38 39 40 40 40 41 42 42 43 44 44 45
62 61 60 59 59 59 59 59 59 59 59 60 60 60 60 59 58 57 56 55 54 53 51 49 48 47 48 50 52 52 53 52 51 50 49 48 47 45 43 43 42 42 41 41 39 39 39 37 40 44 41 36 34 35 35 35 35 35 35 35 35 37 39 40 37 35 35 34 36 38 37 40 40 39 40 40 41 41 41 41 42 43 44 45 46 47 47 47
65 64 62 61 60 60 60 60 60 60 60 60 61 61 61 61 60 58 58 57 56 54 52 50 49 48 49 50 51 52 52 52 53 53 52 50 49 47 46 45 44 44 43 41 40 41 38 37 43 44 38 36 36 36 36 36 36 36 36 36 36 37 39 40 39 37 37 35 36 38 38 39 39 40 41 42 42 42 42 43 44 45 46 48 49 49 49 49
67 66 65 63 62 61 61 61 60 60 61 61 61 62 62 62 61 60 59 57 56 55 53 51 49 50 51 50 50 52 52 53 54 54 54 53 52 50 49 48 46 45 44 42 42 41 38 39 44 43 38 38 38 37 37 37 37 38 37 38 38 40 40 40 40 40 39 37 37 38 38 38 39 40 41 42 42 43 43 44 45 46 48 48 49 49 50 50
67 67 67 66 65 64 63 62 61 61 61 62 63 63 63 63 62 61 60 57 56 56 53 52 50 50 51 50 51 51 51 52 54 55 56 55 55 53 51 51 49 46 45 45 44 41 38 41 45 43 41 40 38 38 39 39 39 39 39 40 41 42 41 41 41 40 39 39 39 38 38 39 40 41 42 42 43 43 44 45 46 47 48 48 49 50 51 52
67 68 68 67 67 66 65 64 62 62 63 64 64 65 65 65 64 63 62 58 55 55 55 52 51 51 52 51 51 50 51 53 54 55 57 57 57 55 53 53 51 48 48 48 45 41 40 43 45 45 43 41 39 40 41 42 41 41 41 42 42 43 42 41 41 40 39 39 39 39 38 39 41 42 42 43 43 43 44 45 46 48 49 50 51 52 53 54
68 68 68 68 68 68 67 64 61 63 64 64 65 67 67 66 66 65 64 60 54 53 56 53 51 51 52 52 51 52 53 52 53 55 57 58 58 58 56 55 53 51 51 50 46 42 42 45 46 46 45 43 41 41 44 45 43 42 43 43 43 43 42 41 41 41 40 40 40 40 39 39 42 43 43 44 44 44 45 46 48 50 51 52 53 54 55 55
70 69 68 68 69 69 67 63 63 65 63 63 66 67 68 68 68 67 66 62 53 51 55 55 52 50 50 52 52 54 53 50 54 57 58 59 60 59 58 56 54 53 53 52 47 43 45 49 48 47 46 45 44 45 47 46 43 43 44 44 44 43 43 42 42 41 41 40 41 41 40 39 41 43 44 44 44 44 46 47 49 51 53 54 55 55 56 57
72 70 69 68 69 70 67 65 66 66 63 64 65 66 67 68 69 68 68 65 52 48 54 55 53 50 50 53 54 55 52 50 56 58 58 60 60 60 58 57 57 56 55 53 48 45 48 51 50 49 48 47 47 48 48 47 45 45 46 46 45 45 44 43 42 42 41 41 41 42 42 41 40 42 43 43 43 44 46 47 49 52 54 56 57 57 58 60
74 73 70 69 70 70 68 67 66 65 65 66 65 65 66 68 69 69 71 65 51 47 52 54 53 52 52 54 55 55 53 53 57 58 59 60 59 59 59 58 58 57 56 54 50 49 51 52 52 52 50 49 50 50 49 48 47 47 48 48 47 46 45 43 42 41 41 41 41 43 45 43 41 42 44 44 45 46 47 49 50 52 53 56 57 59 60 61
77 75 72 71 71 70 69 67 66 67 67 67 67 67 66 68 68 69 72 64 49 46 50 51 53 54 55 55 56 56 55 55 57 58 60 61 59 59 59 59 59 58 57 55 53 53 53 54 55 54 53 52 52 51 51 51 49 49 50 49 48 47 45 44 42 42 42 41 42 46 48 45 43 43 46 48 49 49 51 52 53 54 55 56 57 59 60 61
79 77 75 73 71 70 70 69 68 69 69 69 70 69 69 68 68 71 70 60 49 48 49 51 54 56 57 58 57 57 57 57 58 59 60 61 60 60 60 60 60 59 58 56 55 56 56 56 57 57 56 55 53 53 54 53 51 52 52 51 49 48 47 45 44 44 43 42 44 48 49 47 45 45 47 50 51 52 54 55 56 57 58 58 60 61 63 64
80 79 78 74 71 71 71 71 71 72 72 72 72 72 71 69 70 72 66 56 53 52 51 52 54 56 58 59 60 60 59 59 59 60 60 60 61 60 60 60 60 60 59 57 58 59 59 58 58 59 58 56 56 56 56 55 54 54 53 52 51 49 48 47 46 46 44 43 46 49 49 48 47 47 49 52 53 54 56 57 58 58 59 60 62 64 65 67
81 81 80 76 72 71 70 71 76 78 76 74 74 74 72 73 73 68 58 56 57 53 50 53 55 58 60 60 60 61 60 60 60 60 60 60 59 59 59 59 60 61 60 59 61 62 61 61 61 60 60 59 59 58 58 58 56 56 54 53 53 51 50 48 48 48 46 46 48 49 50 50 48 51 54 55 57 58 59 59 60 60 61 62 63 65 67 69
82 82 81 78 74 71 69 72 78 81 79 78 78 76 75 76 68 57 55 58 58 53 52 55 57 60 62 62 62 62 62 62 61 60 60 59 58 58 58 58 59 61 61 61 63 64 63 63 63 62 63 62 61 61 61 59 57 57 56 55 54 53 52 51 52 51 49 50 51 51 52 51 50 54 57 59 60 61 61 61 61 62 63 64 65 67 69 71
83 83 82 79 76 73 71 73 77 79 80 81 81 78 78 74 59 51 57 59 57 57 56 57 59 61 63 64 64 64 64 63 62 61 60 59 58 57 57 58 59 61 61 62 64 65 65 65 65 65 65 64 63 62 62 60 59 58 57 56 55 56 57 56 55 54 53 53 53 53 54 53 53 56 59 61 62 62 62 62 63 65 67 68 69 71 72 73
85 84 83 80 77 75 74 75 77 79 80 82 82 82 79 69 54 53 59 59 60 61 60 61 63 63 63 64 64 64 65 64 64 64 63 60 58 57 57 58 59 60 62 63 63 65 65 65 67 67 65 65 64 63 62 61 60 58 58 57 57 61 62 59 57 56 57 57 54 55 56 56 56 58 59 60 62 63 64 65 67 69 70 71 72 73 74 75
87 86 85 80 77 76 77 78 79 81 81 82 84 85 77 65 58 60 61 61 63 63 62 64 63 62 62 61 62 64 65 66 67 66 65 62 60 57 57 58 60 61 62 63 64 64 64 65 66 67 66 65 64 63 62 62 61 59 58 60 62 64 63 61 60 60 61 60 56 56 58 57 58 58 58 60 62 64 66 68 70 72 72 74 75 76 78 79
90 88 85 80 76 78 80 81 82 83 83 83 86 84 73 65 64 65 63 63 64 64 65 65 62 60 60 60 61 63 66 67 67 67 66 64 62 59 59 61 61 61 63 64 64 63 64 64 65 66 66 66 65 64 63 62 62 61 62 64 65 64 64 65 65 64 65 63 58 57 57 57 58 58 59 63 65 66 68 70 72 74 76 78 80 82 83 85
92 91 87 81 78 80 81 83 84 84 84 86 88 82 72 67 68 68 67 66 66 66 66 64 61 60 59 59 60 63 66 67 66 67 67 66 64 61 62 63 62 62 64 65 64 63 64 64 64 65 66 66 66 65 63 63 64 65 65 65 66 66 67 68 68 67 67 64 59 57 57 57 58 60 62 65 67 68 71 74 76 78 80 82 85 86 88 89
93 93 89 83 82 83 82 83 85 87 88 90 89 80 71 70 71 72 73 70 69 69 66 63 62 62 60 60 60 62 64 63 64 67 67 67 66 63 64 65 64 64 65 66 65 64 65 65 64 64 66 67 67 66 66 66 68 68 66 67 68 69 70 71 71 69 67 65 62 59 58 57 59 62 64 67 70 73 76 78 79 81 83 86 87 88 90 91
95 95 90 86 86 86 84 85 88 90 91 91 87 80 73 74 75 75 76 74 71 69 67 66 66 64 63 62 62 62 62 61 62 65 66 67 67 66 67 68 68 68 68 68 66 65 66 66 66 66 67 66 66 67 69 70 70 69 69 69 71 72 74 74 72 69 68 67 65 63 60 59 62 65 66 69 73 76 78 80 82 84 87 89 90 91 92 92
96 96 92 89 90 89 88 90 92 93 93 90 85 80 77 77 76 76 76 77 74 71 69 69 70 69 67 66 65 65 65 64 63 64 65 66 67 68 69 71 71 71 71 69 68 67 68 69 69 69 68 68 69 70 72 72 72 72 72 72 74 76 77 75 72 70 71 71 69 68 65 62 66 68 69 73 78 80 82 84 86 90 92 94 95 95 94 93
97 97 93 91 92 91 92 94 94 95 95 90 86 83 81 80 79 79 78 77 76 74 72 71 71 71 71 70 70 70 70 69 66 64 64 64 67 69 70 72 72 72 73 72 70 71 72 72 71 71 71 72 72 73 73 74 74 74 74 76 78 79 78 79 77 75 75 74 72 73 70 66 70 74 77 80 83 84 87 89 91 93 95 97 97 95 94 94
100 98 95 94 94 94 95 97 97 97 97 93 91 90 88 85 83 82 80 78 76 75 74 74 72 72 72 72 73 74 74 73 70 68 66 65 67 69 71 72 72 72 73 72 73 75 76 76 75 75 75 75 74 74 75 75 76 77 78 79 80 79 80 81 81 79 78 75 74 77 75 72 75 80 82 85 86 87 90 92 94 96 97 97 96 94 93 93
100 100 98 96 95 96 97 99 98 98 98 96 95 94 92 89 87 84 82 81 80 77 76 76 75 75 74 74 75 75 75 75 73 71 70 68 68 70 72 73 74 74 74 73 74 77 79 79 78 78 77 77 76 76 76 78 80 81 80 80 79 79 79 80 80 81 79 75 78 82 79 77 81 84 87 90 91 92 94 95 96 97 97 97 95 94 92 92
101 101 100 97 97 97 98 98 98 97 98 98 97 96 95 93 90 87 85 84 84 82 79 77 76 77 78 78 78 77 76 76 74 74 73 73 72 72 73 75 76 77 77 78 78 81 82 81 80 79 79 79 79 79 80 81 83 82 80 79 79 79 80 82 83 84 82 81 84 85 83 84 87 90 93 96 95 95 96 96 96 96 96 95 94 93 93 93
103 103 102 101 101 101 99 98 98 98 98 98 97 97 96 94 92 91 90 88 86 85 83 81 79 79 80 80 80 80 80 79 78 78 77 76 76 75 75 77 78 79 80 81 82 84 85 83 81 80 80 80 80 80 81 82 82 81 80 80 81 82 84 86 87 86 86 88 89 88 90 93 92 93 97 99 97 97 98 98 97 95 94 93 93 93 94 94
107 105 104 103 104 105 103 100 99 98 97 97 98 98 97 96 94 94 94 93 90 88 87 87 85 83 80 80 81 83 83 83 83 82 81 80 79 79 79 79 81 83 84 84 85 85 85 84 82 81 81 81 81 81 81 81 82 82 82 82 83 85 87 89 88 87 89 93 93 92 96 98 95 96 100 100 99 100 99 98 97 95 94 94 94 95 96 98
108 106 104 104 105 105 104 101 99 97 95 95 96 97 97 96 95 95 96 96 94 92 91 91 89 86 84 83 83 84 85 86 86 84 83 83 83 83 82 82 83 85 86 87 88 87 87 86 84 84 83 81 82 83 83 83 83 83 82 82 83 84 87 88 89 90 94 99 99 98 100 100 96 98 101 102 102 101 100 98 97 96 96 96 96 98 100 104
109 107 105 105 106 105 104 103 101 99 97 96 97 97 97 96 94 94 95 95 96 96 95 93 91 89 88 87 87 87 87 87 87 86 86 86 86 85 85 85 85 85 87 88 89 90 90 89 88 87 86 85 86 86 86 87 87 85 84 82 82 85 89 91 92 96 101 103 102 102 103 99 97 99 103 104 103 102 101 99 98 98 99 100 101 103 106 109
109 107 106 105 105 105 104 103 103 102 101 100 100 100 99 97 96 95 94 95 95 96 96 95 93 93 92 92 92 91 89 89 90 89 89 89 89 88 88 87 86 86 87 88 89 90 91 90 88 87 88 88 88 89 91 91 91 91 88 85 85 88 93 95 97 100 102 103 103 104 103 99 98 102 105 105 104 104 104 103 103 103 105 106 107 109 112 114
107 106 105 104 104 104 104 104 104 103 102 102 101 101 100 99 98 96 96 96 96 96 97 96 95 95 96 96 96 94 92 92 93 92 91 90 90 90 90 90 89 88 89 90 91 91 92 92 90 90 91 90 89 92 93 93 95 94 88 83 86 91 94 97 99 100 101 102 103 104 102 100 101 104 106 107 109 109 108 108 109 110 111 112 113 115 116 117
104 105 104 102 103 104 104 104 105 104 103 102 100 99 99 99 99 98 97 98 98 97 98 97 96 96 97 98 98 97 96 95 95 94 93 91 91 91 91 91 91 91 91 92 93 94 95 95 95 95 96 94 92 94 95 97 98 91 81 80 87 91 92 94 96 97 99 101 102 102 102 103 106 107 109 111 113 113 112 113 114 115 116 117 118 119 119 120
Wind_Direction
242 243 244 244 244 245 245 245 246 246 246 247 248 249 251 253 254 256 257 259 260 262 263 264 264 265 267 268 269 270 271 272 273 274 274 275 277 278 280 281 282 283 284 285 285 285 285 285 285 286 286 287 288 289 291 292 294 296 298 299 300 302 304 305 306 307 306 306 306 305 305 305 306 309 307 297 286 286 293 299 303 304 302 300 299 299 299 300
242 243 243 244 245 245 246 246 246 246 247 247 248 249 250 252 254 255 257 258 260 261 262 263 263 265 266 267 268 269 270 270 271 272 273 274 276 277 278 278 279 280 280 281 281 281 282 282 283 283 284 285 286 286 288 290 291 293 294 296 298 300 303 304 305 306 307 307 306 303 301 301 302 306 304 297 285 281 287 293 297 299 301 303 304 304 305 304
242 243 243 244 245 245 246 246 247 247 247 248 248 249 249 251 252 254 255 257 259 260 261 262 262 264 265 266 267 268 269 270 270 270 271 273 275 275 276 277 277 277 277 278 278 279 279 280 281 282 283 284 284 285 286 287 289 290 292 294 297 300 302 303 305 306 306 306 305 303 300 298 299 300 299 296 289 286 287 287 289 292 296 300 303 305 307 307
243 243 244 244 245 246 246 247 247 248 248 248 248 249 249 250 251 253 254 255 257 258 259 260 261 262 264 265 266 267 268 268 269 269 269 271 272 273 274 275 276 276 276 276 277 277 279 280 280 281 283 283 284 285 285 287 288 289 291 292 295 299 300 301 304 304 303 303 302 301 299 299 299 298 297 294 291 293 292 287 287 288 291 296 301 305 308 309
243 244 244 245 246 246 247 248 248 249 249 250 250 250 250 250 251 252 253 254 255 257 258 259 260 261 263 264 265 266 266 268 268 268 268 269 270 271 273 274 275 276 276 277 277 277 278 279 280 281 281 282 283 284 284 285 286 287 289 289 291 295 296 298 300 300 299 298 297 298 297 297 298 299 298 295 294 295 294 291 290 290 291 294 298 303 307 308
243 244 245 246 246 247 248 249 249 250 251 251 252 251 251 251 251 252 253 254 255 256 257 258 259 261 262 263 264 265 266 267 268 268 269 269 269 270 271 273 274 275 276 277 277 277 278 278 279 280 281 282 282 283 283 284 284 285 286 287 289 290 291 293 295 294 293 292 292 293 293 294 295 297 297 296 296 296 296 296 295 294 294 295 297 300 302 303
243 244 245 246 247 248 248 249 250 251 252 252 253 253 253 253 252 253 253 254 255 256 257 258 259 260 262 263 264 265 266 267 268 268 269 269 269 270 271 272 272 273 274 275 276 277 277 278 279 280 281 281 282 283 284 284 284 285 285 286 288 288 288 290 291 290 289 290 290 290 291 291 292 295 297 295 296 298 299 298 296 295 295 296 297 298 298 297
242 243 245 246 247 248 249 250 251 252 253 253 254 254 254 255 254 254 254 254 255 256 257 258 259 261 262 263 264 265 266 267 268 269 268 269 269 269 270 270 271 271 272 273 274 275 276 277 278 279 280 281 282 284 284 285 285 285 284 285 287 288 288 289 290 289 289 290 291 291 292 291 292 296 296 294 296 299 300 299 297 297 297 297 297 296 295 294
242 243 244 245 246 248 249 249 250 252 253 254 255 255 255 256 256 256 256 256 256 256 257 258 259 260 262 263 264 265 265 266 267 268 268 268 269 269 269 269 269 270 271 272 273 274 275 277 278 279 280 281 282 283 283 283 284 284 284 285 286 287 288 289 289 289 289 291 291 292 293 293 295 297 294 292 294 298 298 297 297 298 299 299 297 295 293 292
240 241 242 244 245 247 248 249 250 251 253 254 255 256 256 257 257 258 257 257 257 257 257 257 258 259 261 263 264 264 265 265 266 267 268 268 268 268 268 268 269 269 270 271 272 274 275 277 278 279 280 281 281 281 282 282 283 284 285 286 287 286 287 287 286 286 288 290 291 291 291 292 295 294 290 290 292 294 293 292 294 296 297 297 295 294 293 293
238 239 240 242 243 245 247 249 250 251 252 253 254 256 257 257 257 258 258 258 258 257 257 257 257 258 260 262 263 263 264 264 265 266 267 268 268 268 268 268 269 269 270 271 272 274 276 278 279 280 280 280 281 281 282 283 284 286 287 288 288 286 284 283 282 284 287 289 290 289 289 291 292 290 288 289 290 289 288 288 290 291 292 292 292 293 293 293
235 237 238 239 241 243 245 247 248 249 250 251 253 254 255 256 257 257 258 258 258 258 257 257 256 257 258 260 261 262 263 263 265 266 267 267 268 268 267 268 269 270 271 272 274 276 277 278 279 280 280 280 282 282 283 284 286 288 289 288 287 285 283 282 283 286 288 289 288 288 288 289 290 288 288 289 288 286 285 285 287 288 288 289 289 290 291 292
234 235 236 237 239 241 243 244 246 247 248 249 250 252 253 254 256 257 257 258 259 259 258 258 257 256 257 259 260 261 261 263 264 265 266 267 267 267 268 269 270 272 273 275 276 277 278 279 280 280 279 280 281 282 283 285 288 289 288 287 286 283 283 285 288 289 289 288 288 288 288 288 288 288 289 289 287 285 285 285 286 287 287 287 288 288 289 290
235 235 236 236 238 240 241 243 244 246 247 248 249 250 251 253 254 256 257 258 259 259 259 259 258 257 257 258 259 259 260 262 263 265 266 266 266 267 268 269 271 272 274 275 276 277 278 278 278 278 279 279 280 281 283 286 289 288 287 286 285 284 284 287 287 287 289 290 289 289 288 287 286 288 290 289 287 287 287 287 286 286 286 286 286 286 287 287
236 237 237 237 238 240 241 243 244 245 246 246 247 249 250 251 253 254 256 257 258 259 259 259 259 257 257 257 259 259 260 261 262 264 264 265 266 267 268 269 271 272 273 274 275 276 276 276 277 277 278 278 278 280 283 287 287 284 284 283 284 285 287 287 285 286 289 290 290 289 288 287 288 289 289 288 287 288 289 288 287 286 286 286 285 285 285 285
237 237 238 238 239 241 243 244 245 246 246 246 246 247 248 249 250 252 253 255 256 257 258 258 258 257 257 258 258 259 259 260 261 262 263 264 265 266 268 270 270 272 272 273 273 273 273 274 275 276 276 276 275 278 283 285 282 280 281 281 283 285 285 285 285 288 290 290 289 288 287 287 290 290 287 286 287 288 288 288 288 288 288 287 286 286 286 287
236 237 238 239 240 242 245 247 248 248 248 248 247 247 247 247 248 249 251 252 254 255 256 257 257 257 257 258 259 259 259 259 260 261 262 264 265 266 268 269 270 271 271 272 272 271 272 273 274 275 275 273 274 279 282 280 278 278 278 280 282 283 284 284 286 289 290 289 288 287 286 287 289 288 286 284 284 285 286 286 287 288 288 287 287 287 287 287
234 236 237 239 240 243 246 248 249 250 249 249 249 248 247 247 247 248 249 251 252 253 254 255 256 257 258 258 258 258 258 258 259 260 261 263 265 266 268 269 270 271 271 271 270 271 272 273 274 274 272 272 277 281 279 276 276 278 279 280 281 281 282 283 286 289 289 288 287 286 286 286 287 287 286 284 283 283 284 284 285 286 286 287 287 287 286 287
233 234 236 238 240 243 246 248 249 249 249 250 250 249 248 248 247 247 248 249 250 251 252 253 255 256 257 257 258 258 259 259 259 260 261 262 264 265 267 269 269 269 269 269 270 271 271 272 273 271 271 275 280 278 275 275 277 278 279 279 280 281 281 283 287 289 288 288 287 286 286 285 287 287 285 284 283 283 284 284 285 285 286 286 286 286 286 287
234 235 236 238 240 242 244 246 247 248 249 249 249 249 249 249 248 247 248 248 249 250 251 252 253 254 256 257 258 258 259 260 260 260 260 261 263 265 266 267 267 267 267 267 269 270 270 272 271 269 273 278 278 276 275 276 277 279 279 280 281 281 281 284 289 290 288 287 286 286 286 286 288 288 285 284 284 284 285 286 286 286 285 286 286 287 288 288
237 237 237 238 239 241 243 245 246 247 248 248 249 249 249 249 248 248 248 248 249 250 250 251 252 255 255 256 258 258 259 260 260 260 260 261 262 263 264 265 266 266 266 266 267 267 269 270 269 271 276 277 275 275 276 277 278 279 280 282 282 281 282 287 290 290 289 288 287 287 288 288 289 289 287 287 287 287 287 287 287 286 285 286 287 288 288 289
239 239 239 239 239 240 242 243 245 246 247 248 248 248 248 249 248 248 249 249 249 250 250 251 252 254 255 256 258 259 258 259 259 260 260 261 261 261 262 264 264 265 265 266 265 266 269 268 268 272 275 274 274 276 276 277 278 279 281 283 283 283 285 288 289 289 290 290 288 288 289 289 289 288 287 288 288 288 289 289 288 287 287 287 288 288 288 288
239 240 240 240 241 241 241 243 244 246 247 248 248 248 248 248 248 248 248 248 250 251 251 252 253 254 256 256 257 258 259 259 259 259 260 260 260 260 261 263 263 264 265 264 264 265 268 267 269 272 272 272 274 275 276 276 277 279 282 283 283 285 287 288 289 290 290 289 288 287 288 287 287 286 287 288 289 289 290 289 288 287 287 287 288 288 289 289
237 239 240 240 241 242 242 243 245 247 247 247 248 248 248 248 248 248 248 246 248 252 253 252 253 255 256 256 257 259 259 259 259 259 259 259 259 260 260 261 262 263 263 263 264 265 266 266 268 270 271 272 274 274 275 274 276 280 282 283 283 284 287 288 288 289 289 288 288 287 287 285 284 284 285 286 287 288 289 287 286 286 286 287 288 289 289 289
235 237 239 240 241 242 243 244 246 247 247 248 249 249 248 248 247 247 247 245 244 250 254 252 252 254 257 257 258 258 257 258 260 260 259 258 258 259 258 260 261 262 263 263 263 265 265 265 266 268 270 272 272 272 272 273 277 281 281 280 281 283 285 286 286 287 288 288 287 287 286 283 283 284 284 284 285 286 286 285 286 286 286 287 288 289 289 289
234 235 238 240 241 242 243 243 245 246 247 249 249 249 249 248 248 247 247 245 240 246 253 253 251 252 256 258 257 257 256 258 261 259 258 258 257 257 258 260 261 262 262 263 264 265 264 264 266 268 270 271 271 270 271 275 279 280 278 278 280 282 282 283 285 286 287 287 287 287 284 282 284 286 286 286 286 284 283 284 285 285 286 287 288 289 288 288
235 236 237 240 241 241 241 241 243 245 247 248 249 249 249 249 249 248 248 245 239 242 250 253 252 251 253 256 257 257 257 257 259 258 258 258 257 258 258 259 261 261 262 264 265 265 263 265 267 268 269 270 270 269 271 276 278 277 276 277 279 279 280 282 283 285 285 286 287 286 283 285 288 289 289 290 289 286 286 286 285 286 287 288 288 288 287 287
236 237 238 239 240 239 239 240 242 245 246 248 249 249 249 248 249 248 249 247 240 240 248 252 255 254 252 254 256 257 256 255 257 258 258 258 258 259 259 259 260 262 263 264 265 264 263 265 266 267 269 269 269 270 273 275 276 275 274 276 277 277 279 281 282 283 283 284 286 283 283 287 289 290 291 291 290 289 290 289 288 289 289 289 289 289 289 288
237 238 238 239 239 239 238 239 241 244 245 247 248 248 248 247 248 248 248 247 241 240 246 252 255 256 255 254 254 255 255 254 256 257 258 259 259 259 259 259 260 261 263 264 264 263 263 264 265 267 268 268 268 270 272 274 274 273 273 274 275 276 279 280 281 281 282 284 284 283 285 289 291 291 291 290 289 290 291 292 293 292 291 291 291 291 291 291
238 239 239 240 240 240 239 238 239 242 244 245 246 247 247 246 246 247 247 246 243 238 239 246 252 256 257 256 255 255 255 255 255 256 257 258 258 259 259 259 260 260 262 263 263 263 263 263 264 266 267 268 269 270 272 273 273 272 272 273 273 275 278 279 280 280 282 283 283 284 288 291 293 292 289 288 289 290 292 294 294 293 292 292 292 292 292 292
239 240 240 241 241 241 241 240 240 241 242 243 245 246 247 246 245 246 246 246 243 238 235 240 247 252 256 257 257 256 255 255 256 256 256 257 257 258 259 260 260 261 261 262 262 261 262 262 263 265 267 268 268 269 270 271 271 271 272 272 273 274 276 277 278 279 281 282 282 285 288 290 293 291 287 287 288 289 291 292 291 291 291 291 291 292 292 293
239 240 241 241 241 242 243 244 243 243 244 244 245 246 247 247 247 250 251 249 247 242 237 238 242 247 252 255 256 257 257 256 256 257 257 258 258 259 260 260 261 261 261 260 260 260 261 262 263 265 266 267 267 268 269 270 270 271 271 271 272 273 274 276 277 277 279 280 281 284 287 290 291 289 287 288 289 290 291 291 291 291 290 290 290 291 291 292
239 240 240 241 241 242 244 245 247 248 248 248 248 248 249 249 252 257 257 253 250 245 239 239 241 245 249 252 255 257 258 258 258 258 258 259 259 259 260 261 261 261 260 259 259 260 261 262 263 263 264 265 266 267 268 269 269 269 269 269 271 273 273 274 274 276 279 280 281 284 287 289 288 286 287 288 289 291 291 291 291 290 290 289 289 289 290 291
240 240 240 240 240 240 241 244 248 250 251 251 251 252 252 253 256 259 257 254 251 245 240 239 241 242 245 248 251 255 257 259 261 261 260 260 260 260 261 261 262 262 262 260 260 260 260 260 261 262 263 264 265 265 267 267 267 267 268 269 271 272 271 271 273 277 279 279 281 284 286 286 285 285 287 289 289 290 290 290 290 290 289 289 289 290 290 291
240 241 240 240 240 241 241 242 246 248 249 250 252 252 252 254 256 255 253 253 250 246 242 239 240 241 244 246 249 253 256 258 260 261 262 261 262 262 263 263 263 263 263 262 261 260 260 260 260 261 263 263 263 264 265 266 266 266 267 269 269 269 269 272 275 277 277 278 281 283 283 284 285 286 288 288 288 289 290 290 290 289 289 289 290 290 290 290
241 241 241 241 241 242 243 243 244 246 247 248 249 250 252 254 252 250 249 250 249 247 245 243 241 242 244 247 250 252 254 256 257 259 261 262 263 264 265 266 265 264 264 263 262 262 261 261 261 261 262 262 262 263 264 265 265 266 266 267 266 267 271 273 274 275 275 277 278 279 282 285 286 287 288 288 288 289 290 290 289 289 289 290 290 290 291 292
241 241 242 242 242 243 243 244 245 246 247 247 248 250 252 253 250 248 247 247 248 248 247 246 245 244 245 247 249 252 253 254 256 258 259 260 261 263 265 266 266 266 265 264 263 263 262 261 260 260 260 261 261 261 263 264 264 264 264 265 266 269 271 272 273 273 274 275 276 279 282 284 285 287 287 287 288 288 288 288 288 288 289 290 290 291 292 293
243 244 243 243 243 243 244 244 245 246 247 247 248 249 251 251 250 248 246 245 246 247 247 248 248 247 247 247 248 251 252 254 255 257 257 258 259 260 263 264 265 266 265 265 264 263 262 260 259 259 260 260 260 261 263 263 263 263 263 265 268 270 270 271 272 272 273 275 277 279 281 283 285 286 286 286 287 287 287 287 288 289 290 290 290 291 292 293
244 245 244 244 244 243 244 245 245 246 246 247 248 249 249 249 249 248 247 245 244 246 247 249 249 249 248 248 249 251 253 254 255 255 256 256 257 257 260 262 264 264 264 264 264 263 262 260 259 258 258 259 260 262 263 262 263 263 265 267 269 270 270 271 271 272 274 276 278 278 279 282 284 284 285 286 286 286 286 287 288 289 289 289 290 291 291 291
244 245 244 244 245 245 245 245 246 246 246 247 249 249 248 248 248 248 249 248 246 247 248 249 250 250 250 250 251 253 254 255 255 255 255 255 255 256 257 259 261 262 263 263 263 263 262 260 259 257 257 258 260 261 262 263 264 266 267 269 270 270 270 270 271 273 275 277 278 278 279 281 283 283 285 286 286 285 286 287 287 287 288 289 289 290 290 292
243 244 244 244 245 246 246 246 247 248 248 249 250 251 250 250 251 251 252 251 249 248 248 249 250 251 251 251 252 253 254 255 255 256 256 255 255 255 256 257 259 261 263 263 263 263 262 260 259 259 258 259 259 260 262 264 266 267 269 271 271 271 271 271 273 275 276 278 280 280 281 283 284 284 284 284 284 284 285 285 286 287 288 289 289 290 292 293
241 243 243 243 244 245 246 247 248 249 250 250 251 252 252 251 252 252 253 253 253 250 249 249 250 251 252 252 253 253 254 254 255 256 257 256 255 255 255 257 259 260 262 263 263 263 262 261 260 260 260 260 261 262 264 266 268 269 271 271 272 272 273 274 275 276 276 278 282 283 284 286 285 284 283 282 283 284 284 284 285 285 286 287 288 290 291 292
241 242 242 242 243 244 245 247 248 250 251 252 251 251 251 251 252 253 254 255 255 254 252 251 250 251 252 252 253 253 254 255 255 255 256 257 257 256 256 256 257 259 260 262 263 263 262 261 261 261 261 262 263 264 266 267 268 269 270 271 272 274 274 275 276 276 276 279 283 283 284 285 284 283 282 282 283 283 283 283 284 285 285 286 288 289 290 292
240 241 242 242 243 243 245 247 248 250 252 253 253 253 252 252 252 254 255 256 256 256 255 253 252 251 251 251 252 253 254 256 256 256 256 257 257 257 256 256 256 257 259 260 261 263 263 262 262 261 261 262 264 265 266 267 267 268 270 272 273 273 274 275 276 276 277 280 281 282 284 285 283 281 281 281 282 282 282 283 284 285 286 287 288 289 291 292
239 240 240 241 242 243 245 247 248 250 251 252 253 254 255 254 254 254 255 255 256 256 256 255 254 253 252 252 252 253 254 256 256 256 256 256 257 257 257 258 257 258 259 260 261 261 262 262 263 263 263 263 263 264 265 266 267 269 271 272 273 274 275 275 275 277 279 280 280 283 285 284 281 282 282 282 282 283 284 284 285 285 286 287 289 291 293 295
240 240 240 241 242 243 245 246 248 250 251 253 254 255 256 256 256 256 255 255 256 256 257 256 256 255 255 255 255 255 255 255 255 255 255 256 256 257 258 259 260 260 260 260 260 260 261 262 263 264 264 264 264 264 265 266 268 270 271 272 273 275 275 275 276 278 280 280 280 281 282 281 281 283 283 284 285 285 285 285 285 286 287 288 290 293 296 298
240 241 241 242 243 244 245 246 249 251 252 254 255 255 256 256 257 257 257 257 256 257 257 257 257 257 257 258 257 257 257 256 256 255 256 257 257 257 258 259 260 260 260 260 260 261 262 262 263 264 265 265 266 266 267 267 268 269 271 272 273 275 275 276 277 279 279 278 279 280 280 281 283 284 285 285 285 285 284 285 286 288 290 292 294 297 299 301
240 241 241 242 243 244 245 246 247 249 250 252 253 254 255 255 255 256 257 258 258 258 258 258 258 257 258 258 258 257 257 257 257 257 257 258 258 258 258 259 259 260 260 260 260 261 262 263 264 265 265 266 267 267 267 268 268 269 270 271 273 274 275 276 277 278 278 278 280 281 282 282 284 285 285 285 285 285 286 288 290 292 294 297 299 301 303 304
240 240 241 242 243 244 245 245 245 246 247 248 250 251 253 254 254 255 256 258 258 259 259 260 260 259 259 259 259 259 258 258 257 257 257 258 258 258 259 260 260 261 261 261 262 262 263 263 264 265 266 266 266 267 267 267 266 266 267 268 271 273 274 275 276 277 277 279 281 281 281 282 284 285 285 285 286 288 291 293 295 297 299 301 303 304 304 304
242 241 241 242 243 244 245 245 245 245 246 247 248 250 252 253 253 254 255 256 257 258 259 261 261 261 261 261 261 262 261 260 258 257 257 258 259 260 261 261 262 262 262 263 264 265 265 266 266 266 266 266 266 267 267 266 266 265 265 267 270 271 272 273 274 275 276 279 280 281 282 284 285 285 286 288 291 294 296 298 300 301 302 304 304 305 304 303
243 243 243 242 243 244 245 246 246 246 246 247 248 250 251 252 253 254 254 255 256 257 258 259 260 261 261 262 262 263 263 262 261 260 259 260 260 261 262 262 263 263 264 265 265 266 266 267 267 268 268 268 268 269 269 269 268 267 267 270 272 272 272 273 274 276 278 280 282 283 285 287 288 289 291 295 297 298 299 301 302 303 304 305 305 304 303 302
241 243 243 243 243 244 245 246 247 247 247 248 248 249 251 252 253 254 255 256 257 257 258 258 259 260 261 261 262 263 264 264 263 262 261 261 261 262 262 263 264 264 265 266 267 267 268 268 269 270 270 271 271 271 272 271 270 270 272 274 274 274 275 276 278 280 282 284 285 287 289 291 292 294 297 298 298 299 301 302 303 303 304 304 303 302 302 304
Height
10777 10779 10780 10782 10783 10785 10786 10787 10788 10789 10790 10791 10792 10794 10795 10796 10797 10798 10798 10799 10800 10800 10801 10802 10802 10803 10803 10803 10803 10804 10804 10805 10805 10805 10805 10805 10806 10805 10805 10805 10805 10805 10806 10806 10806 10805 10806 10806 10806 10806 10807 10807 10807 10807 10807 10807 10807 10807 10806 10806 10806 10806 10806 10806 10805 10805 10805 10806 10807 10807 10806 10806 10807 10808 10810 10809 10808 10806 10804 10802 10802 10802 10803 10804 10805 10807 10808 10808
10773 10775 10777 10778 10779 10781 10782 10783 10784 10785 10787 10788 10789 10790 10791 10792 10793 10794 10795 10796 10797 10798 10798 10799 10799 10800 10800 10800 10801 10801 10802 10802 10802 10803 10803 10803 10803 10803 10803 10803 10803 10803 10803 10804 10804 10804 10804 10804 10804 10804 10804 10804 10804 10805 10805 10805 10805 10805 10804 10804 10804 10804 10804 10804 10804 10804 10804 10804 10805 10805 10805 10805 10805 10806 10807 10807 10806 10805 10805 10803 10802 10800 10800 10801 10802 10803 10805 10806
10769 10771 10773 10774 10776 10777 10778 10779 10780 10782 10783 10784 10785 10787 10787 10788 10790 10791 10792 10793 10794 10795 10795 10796 10796 10797 10797 10798 10798 10798 10799 10800 10800 10800 10800 10801 10801 10801 10801 10800 10801 10801 10801 10801 10801 10802 10802 10802 10802 10802 10802 10802 10802 10803 10803 10803 10802 10802 10802 10802 10802 10802 10802 10803 10803 10803 10803 10803 10803 10803 10804 10804 10804 10805 10805 10805 10804 10804 10805 10803 10802 10800 10799 10799 10799 10800 10802 10803
10765 10767 10768 10770 10772 10773 10774 10775 10776 10777 10779 10780 10781 10783 10784 10785 10786 10787 10788 10789 10791 10792 10792 10793 10793 10794 10794 10795 10795 10796 10796 10797 10797 10798 10798 10798 10798 10798 10798 10798 10798 10798 10799 10799 10799 10799 10799 10800 10800 10800 10800 10799 10799 10800 10800 10800 10800 10800 10800 10800 10800 10800 10800 10801 10801 10801 10801 10801 10801 10801 10801 10802 10802 10802 10803 10803 10802 10802 10804 10803 10802 10801 10799 10799 10798 10798 10799 10799
10761 10763 10764 10766 10768 10769 10770 10771 10772 10774 10775 10776 10778 10779 10780 10781 10783 10784 10785 10786 10787 10788 10789 10790 10790 10791 10791 10792 10792 10793 10794 10794 10794 10795 10796 10796 10796 10796 10796 10795 10795 10795 10796 10796 10797 10797 10797 10797 10797 10797 10797 10797 10797 10797 10798 10798 10798 10797 10797 10797 10798 10798 10798 10798 10799 10799 10799 10799 10799 10799 10799 10800 10800 10800 10800 10799 10800 10800 10801 10801 10801 10801 10800 10799 10798 10797 10797 10797
10756 10758 10760 10762 10763 10765 10766 10767 10768 10770 10771 10772 10774 10775 10777 10778 10779 10780 10781 10782 10783 10785 10786 10787 10787 10788 10788 10789 10789 10790 10791 10791 10791 10792 10793 10793 10793 10793 10793 10793 10793 10793 10793 10793 10794 10794 10794 10794 10794 10794 10794 10794 10794 10794 10795 10795 10795 10795 10795 10795 10795 10796 10796 10796 10796 10796 10796 10796 10797 10797 10797 10798 10798 10798 10798 10797 10797 10797 10798 10799 10799 10799 10799 10798 10798 10797 10797 10796
10751 10753 10755 10757 10759 10760 10761 10763 10764 10766 10767 10768 10770 10772 10773 10774 10775 10776 10777 10778 10780 10781 10783 10784 10784 10785 10785 10786 10786 10787 10789 10788 10787 10789 10790 10789 10790 10790 10790 10790 10790 10790 10790 10790 10791 10791 10791 10791 10791 10791 10791 10791 10791 10791 10792 10792 10792 10793 10793 10792 10793 10794 10794 10794 10794 10794 10793 10793 10794 10794 10795 10795 10796 10796 10795 10794 10794 10794 10794 10795 10795 10796 10797 10797 10796 10795 10795 10795
10746 10748 10751 10753 10754 10756 10757 10758 10760 10761 10763 10764 10766 10768 10769 10770 10772 10772 10773 10774 10776 10777 10779 10780 10781 10782 10782 10782 10783 10784 10786 10786 10784 10786 10787 10786 10787 10787 10787 10787 10787 10787 10787 10787 10788 10788 10788 10788 10788 10788 10788 10789 10789 10789 10789 10789 10789 10790 10790 10790 10790 10791 10792 10792 10792 10791 10790 10791 10790 10791 10792 10792 10793 10794 10793 10791 10791 10791 10791 10790 10790 10791 10792 10793 10793 10792 10792 10792
10741 10743 10745 10748 10749 10751 10752 10754 10756 10757 10758 10760 10761 10763 10765 10766 10768 10769 10769 10770 10772 10773 10775 10776 10777 10778 10778 10779 10779 10780 10783 10783 10781 10782 10783 10783 10783 10783 10784 10783 10783 10784 10784 10784 10784 10785 10785 10785 10785 10785 10785 10786 10786 10786 10786 10786 10786 10786 10787 10787 10788 10788 10788 10789 10789 10788 10787 10787 10787 10787 10788 10789 10790 10791 10790 10789 10789 10789 10788 10787 10786 10786 10787 10788 10788 10788 10788 10788
10735 10738 10740 10742 10744 10746 10747 10749 10751 10752 10754 10755 10757 10759 10761 10762 10763 10764 10765 10766 10767 10769 10771 10772 10773 10774 10775 10775 10775 10777 10780 10779 10777 10779 10780 10780 10780 10780 10780 10780 10780 10781 10781 10781 10781 10781 10782 10782 10782 10782 10782 10782 10783 10783 10783 10783 10783 10783 10783 10784 10785 10784 10785 10786 10785 10785 10785 10785 10785 10784 10785 10786 10787 10787 10786 10786 10786 10786 10785 10784 10784 10784 10784 10784 10784 10784 10784 10784
10729 10732 10735 10737 10739 10741 10742 10744 10746 10747 10749 10750 10752 10754 10756 10757 10758 10759 10760 10761 10762 10764 10766 10768 10769 10770 10771 10771 10770 10773 10776 10775 10774 10776 10776 10776 10777 10777 10777 10776 10777 10777 10777 10778 10778 10778 10778 10779 10779 10779 10779 10779 10780 10780 10780 10780 10780 10780 10780 10780 10781 10781 10781 10782 10782 10782 10783 10783 10782 10782 10782 10783 10784 10783 10783 10782 10783 10783 10782 10781 10781 10781 10781 10781 10780 10780 10780 10780
10723 10726 10729 10731 10734 10736 10737 10739 10740 10741 10743 10745 10747 10749 10751 10752 10753 10754 10755 10757 10758 10759 10761 10763 10765 10766 10767 10767 10766 10769 10772 10770 10771 10772 10772 10773 10773 10773 10773 10773 10773 10774 10774 10774 10774 10775 10775 10776 10776 10776 10776 10776 10777 10777 10777 10777 10777 10777 10777 10776 10777 10777 10777 10778 10779 10779 10781 10780 10779 10778 10778 10780 10781 10780 10779 10779 10779 10779 10778 10779 10779 10779 10778 10778 10778 10778 10777 10777
10718 10721 10723 10726 10729 10730 10731 10733 10734 10736 10737 10739 10741 10743 10745 10746 10748 10749 10750 10752 10753 10755 10756 10758 10760 10762 10763 10762 10761 10765 10767 10767 10768 10768 10768 10769 10769 10769 10769 10769 10770 10770 10770 10771 10771 10772 10772 10772 10773 10773 10773 10773 10773 10774 10774 10774 10775 10775 10774 10773 10772 10772 10773 10774 10775 10776 10777 10777 10776 10775 10774 10776 10778 10776 10776 10776 10775 10775 10775 10775 10776 10776 10775 10775 10775 10775 10774 10774
10713 10715 10718 10721 10723 10724 10726 10727 10728 10730 10731 10734 10736 10738 10739 10741 10743 10744 10745 10747 10748 10750 10751 10753 10755 10757 10758 10757 10756 10760 10762 10763 10764 10764 10765 10765 10765 10765 10765 10766 10766 10766 10767 10768 10768 10768 10769 10769 10769 10769 10769 10769 10769 10770 10771 10772 10772 10772 10771 10769 10768 10767 10769 10771 10772 10772 10773 10773 10772 10771 10769 10771 10774 10773 10772 10772 10771 10771 10771 10772 10772 10772 10772 10772 10772 10772 10772 10771
10708 10710 10712 10715 10717 10719 10720 10721 10723 10724 10726 10728 10730 10732 10734 10735 10737 10738 10740 10741 10743 10745 10746 10748 10750 10752 10753 10752 10752 10755 10757 10759 10760 10760 10761 10760 10761 10762 10762 10762 10763 10763 10764 10764 10764 10765 10765 10765 10766 10766 10765 10765 10765 10766 10768 10769 10768 10768 10767 10765 10764 10764 10764 10767 10768 10769 10770 10769 10768 10767 10764 10765 10770 10771 10769 10767 10766 10767 10767 10767 10768 10768 10768 10768 10768 10768 10768 10768
10702 10704 10706 10709 10712 10713 10715 10716 10718 10719 10721 10723 10724 10726 10728 10729 10731 10732 10734 10736 10737 10739 10741 10743 10744 10746 10748 10747 10747 10750 10752 10754 10755 10756 10756 10756 10757 10758 10758 10759 10759 10759 10760 10760 10760 10761 10761 10762 10762 10762 10761 10760 10761 10764 10766 10765 10764 10764 10764 10762 10761 10760 10760 10761 10763 10765 10766 10766 10764 10763 10760 10760 10764 10767 10765 10764 10763 10763 10763 10763 10763 10763 10763 10764 10764 10764 10763 10763
10695 10698 10700 10703 10706 10708 10709 10710 10712 10714 10716 10717 10719 10720 10722 10723 10725 10726 10728 10730 10732 10733 10735 10738 10738 10741 10744 10743 10742 10744 10746 10749 10750 10751 10752 10752 10753 10753 10754 10755 10755 10756 10756 10756 10757 10757 10758 10758 10758 10758 10756 10755 10757 10761 10763 10761 10759 10760 10760 10759 10758 10757 10756 10756 10759 10762 10763 10762 10761 10759 10757 10756 10759 10762 10761 10761 10760 10759 10759 10759 10759 10759 10758 10758 10759 10759 10759 10758
10688 10691 10694 10697 10700 10701 10703 10704 10706 10708 10710 10712 10713 10715 10716 10717 10719 10721 10722 10724 10725 10727 10730 10732 10734 10738 10739 10737 10737 10738 10741 10744 10745 10746 10747 10748 10749 10749 10750 10751 10751 10752 10752 10752 10752 10753 10754 10754 10754 10753 10750 10750 10755 10758 10758 10756 10755 10756 10756 10756 10755 10754 10752 10752 10755 10759 10759 10758 10757 10756 10754 10752 10754 10756 10756 10756 10756 10755 10755 10755 10755 10755 10754 10754 10754 10754 10754 10753
10682 10685 10688 10690 10693 10695 10697 10698 10700 10702 10704 10706 10708 10709 10710 10711 10713 10715 10716 10718 10720 10721 10724 10727 10730 10733 10733 10732 10732 10733 10735 10738 10740 10741 10742 10743 10744 10745 10746 10746 10747 10747 10748 10748 10748 10749 10749 10750 10750 10746 10744 10748 10752 10753 10752 10751 10751 10751 10752 10752 10751 10750 10748 10748 10751 10755 10755 10754 10752 10752 10751 10748 10749 10751 10751 10750 10751 10751 10751 10751 10751 10750 10750 10749 10749 10749 10748 10749
10677 10679 10681 10684 10686 10688 10690 10692 10694 10696 10698 10700 10701 10702 10704 10705 10707 10709 10710 10712 10714 10716 10720 10723 10724 10727 10728 10727 10727 10729 10730 10732 10735 10736 10737 10738 10739 10740 10741 10741 10742 10742 10743 10743 10744 10745 10745 10747 10743 10739 10741 10746 10747 10747 10747 10747 10746 10747 10747 10747 10748 10746 10744 10743 10747 10749 10750 10750 10748 10747 10747 10745 10744 10746 10745 10745 10745 10746 10746 10746 10746 10745 10745 10744 10744 10744 10743 10743
10670 10673 10676 10678 10680 10682 10684 10686 10688 10690 10692 10693 10694 10696 10697 10698 10700 10703 10704 10706 10709 10711 10714 10717 10719 10721 10722 10722 10723 10724 10726 10727 10728 10729 10731 10732 10734 10735 10735 10736 10737 10737 10738 10739 10740 10740 10741 10743 10737 10735 10740 10742 10741 10742 10742 10742 10742 10742 10742 10743 10743 10741 10740 10740 10742 10743 10743 10745 10744 10742 10742 10741 10741 10741 10739 10740 10740 10741 10741 10741 10741 10740 10739 10739 10738 10738 10738 10737
10664 10667 10670 10672 10674 10675 10677 10679 10681 10684 10685 10687 10688 10689 10690 10691 10694 10697 10698 10701 10704 10705 10709 10712 10715 10716 10715 10718 10719 10719 10721 10722 10723 10724 10725 10727 10728 10729 10730 10731 10731 10732 10733 10735 10735 10735 10738 10737 10731 10732 10736 10736 10736 10737 10737 10738 10737 10737 10738 10738 10738 10736 10737 10737 10737 10738 10739 10739 10739 10738 10738 10737 10737 10736 10734 10735 10735 10736 10736 10736 10736 10735 10734 10734 10733 10733 10732 10732
10657 10660 10663 10666 10667 10668 10671 10673 10676 10678 10679 10680 10680 10681 10682 10684 10687 10689 10691 10696 10699 10700 10704 10707 10709 10711 10711 10713 10714 10714 10717 10717 10717 10718 10718 10720 10721 10722 10725 10725 10725 10728 10729 10728 10729 10732 10735 10731 10727 10728 10730 10731 10732 10733 10732 10733 10733 10733 10734 10734 10733 10731 10733 10734 10733 10734 10735 10734 10734 10734 10734 10733 10732 10731 10730 10730 10731 10731 10732 10731 10730 10730 10729 10729 10728 10728 10727 10726
10649 10652 10656 10660 10660 10662 10665 10667 10671 10673 10672 10673 10673 10673 10675 10677 10679 10681 10684 10690 10695 10696 10698 10702 10705 10706 10705 10707 10709 10711 10712 10711 10711 10712 10712 10714 10714 10716 10719 10718 10720 10723 10722 10722 10724 10728 10729 10726 10723 10723 10724 10726 10728 10728 10727 10727 10728 10730 10729 10729 10728 10728 10729 10729 10729 10730 10730 10730 10729 10729 10730 10728 10726 10726 10726 10725 10726 10726 10726 10726 10725 10725 10724 10724 10723 10723 10722 10721
10641 10644 10649 10652 10654 10656 10658 10664 10667 10664 10664 10666 10666 10666 10668 10670 10671 10674 10676 10682 10693 10694 10691 10695 10700 10700 10700 10702 10705 10704 10704 10706 10706 10705 10705 10706 10707 10709 10711 10712 10715 10717 10715 10716 10720 10724 10724 10720 10718 10718 10719 10722 10723 10723 10721 10721 10724 10726 10724 10724 10724 10724 10724 10725 10725 10725 10726 10726 10725 10725 10726 10725 10721 10721 10721 10721 10721 10721 10721 10720 10720 10720 10719 10719 10718 10718 10717 10716
10632 10636 10641 10645 10647 10649 10653 10661 10658 10654 10659 10660 10658 10659 10661 10663 10664 10667 10668 10675 10690 10692 10685 10688 10693 10696 10697 10696 10697 10696 10699 10704 10699 10697 10699 10699 10700 10702 10705 10708 10710 10710 10709 10710 10716 10721 10718 10713 10713 10714 10715 10716 10718 10717 10715 10717 10721 10721 10719 10718 10719 10720 10720 10721 10721 10721 10722 10722 10721 10720 10720 10721 10719 10717 10716 10716 10716 10716 10715 10714 10714 10713 10713 10713 10713 10712 10711 10710
10625 10629 10633 10637 10640 10642 10649 10653 10648 10649 10653 10650 10650 10653 10654 10656 10657 10660 10660 10667 10686 10690 10682 10682 10686 10691 10691 10688 10689 10689 10694 10698 10691 10689 10692 10691 10693 10696 10699 10703 10703 10703 10704 10706 10712 10714 10710 10707 10708 10709 10710 10711 10711 10711 10711 10713 10716 10716 10713 10713 10715 10715 10715 10716 10717 10718 10718 10718 10718 10715 10713 10717 10718 10715 10712 10712 10711 10709 10709 10708 10708 10707 10707 10707 10706 10706 10705 10704
10619 10621 10625 10630 10632 10636 10642 10644 10642 10644 10644 10641 10643 10645 10646 10648 10650 10652 10651 10661 10684 10688 10680 10679 10680 10682 10684 10682 10681 10682 10687 10689 10683 10684 10685 10684 10688 10690 10693 10696 10695 10697 10698 10701 10706 10706 10704 10703 10702 10702 10705 10706 10705 10705 10706 10708 10710 10709 10708 10708 10709 10710 10711 10712 10712 10713 10713 10714 10714 10709 10707 10713 10715 10712 10709 10706 10704 10703 10702 10702 10702 10702 10701 10700 10700 10699 10698 10697
10611 10613 10618 10621 10624 10630 10635 10637 10638 10635 10634 10634 10634 10635 10638 10639 10642 10644 10642 10657 10680 10684 10679 10678 10674 10674 10674 10674 10675 10675 10677 10679 10678 10678 10678 10678 10682 10684 10686 10688 10689 10692 10693 10695 10699 10698 10698 10697 10696 10697 10699 10699 10699 10700 10701 10702 10703 10703 10703 10703 10704 10704 10706 10707 10708 10708 10708 10710 10709 10703 10703 10708 10711 10709 10705 10700 10699 10698 10696 10695 10695 10695 10694 10694 10693 10692 10691 10689
10603 10606 10610 10612 10619 10624 10627 10631 10630 10625 10625 10626 10625 10626 10628 10631 10635 10633 10636 10656 10674 10676 10674 10672 10668 10667 10666 10666 10667 10668 10669 10670 10671 10671 10671 10673 10674 10676 10679 10681 10683 10686 10687 10690 10691 10691 10691 10691 10691 10691 10692 10693 10694 10694 10695 10696 10697 10697 10697 10698 10698 10699 10701 10701 10702 10702 10703 10706 10702 10698 10699 10702 10704 10704 10699 10694 10693 10692 10691 10690 10689 10688 10687 10687 10686 10684 10683 10681
10595 10598 10601 10607 10614 10616 10619 10624 10621 10616 10616 10616 10616 10617 10619 10624 10624 10623 10638 10657 10662 10664 10668 10666 10663 10661 10658 10657 10658 10659 10662 10662 10663 10664 10665 10667 10668 10671 10673 10674 10677 10679 10681 10685 10683 10682 10683 10684 10685 10685 10686 10687 10687 10687 10688 10689 10690 10690 10691 10692 10692 10694 10695 10695 10696 10695 10697 10699 10697 10694 10695 10696 10698 10697 10692 10690 10688 10687 10686 10684 10683 10682 10681 10680 10678 10676 10675 10673
10587 10590 10593 10601 10607 10609 10614 10618 10610 10605 10608 10609 10608 10609 10613 10614 10613 10625 10645 10651 10649 10657 10663 10660 10658 10654 10649 10650 10650 10651 10653 10654 10656 10658 10659 10661 10664 10666 10668 10669 10671 10671 10675 10677 10674 10674 10676 10677 10678 10679 10680 10680 10680 10681 10681 10682 10684 10685 10686 10686 10686 10687 10688 10689 10688 10688 10690 10693 10691 10690 10690 10691 10692 10688 10684 10684 10682 10681 10679 10677 10676 10675 10674 10673 10671 10669 10667 10666
10579 10581 10586 10593 10599 10602 10607 10607 10599 10597 10603 10602 10599 10602 10604 10602 10614 10635 10643 10639 10642 10650 10653 10651 10650 10647 10645 10645 10645 10644 10645 10647 10649 10651 10653 10656 10659 10661 10662 10663 10664 10663 10667 10668 10666 10668 10670 10671 10671 10672 10672 10672 10673 10674 10674 10676 10677 10678 10679 10679 10679 10680 10680 10681 10681 10681 10685 10685 10685 10685 10685 10687 10686 10681 10676 10676 10675 10673 10671 10669 10669 10667 10666 10664 10662 10661 10660 10659
10570 10573 10578 10585 10591 10594 10596 10596 10592 10592 10595 10593 10591 10594 10592 10598 10623 10636 10631 10630 10635 10637 10639 10640 10639 10638 10639 10639 10640 10639 10639 10641 10643 10644 10647 10650 10653 10655 10656 10656 10657 10657 10658 10659 10659 10660 10662 10664 10664 10664 10665 10665 10666 10667 10667 10669 10671 10672 10672 10672 10673 10671 10670 10672 10674 10676 10678 10678 10679 10680 10679 10680 10679 10675 10671 10669 10666 10664 10663 10662 10660 10658 10656 10654 10653 10652 10651 10650
10560 10564 10569 10576 10583 10587 10588 10587 10584 10583 10583 10584 10583 10581 10584 10604 10626 10626 10620 10623 10623 10623 10628 10629 10628 10630 10632 10634 10636 10635 10635 10636 10636 10636 10638 10642 10646 10649 10650 10650 10650 10650 10649 10650 10651 10652 10654 10656 10656 10656 10658 10658 10659 10659 10660 10662 10663 10665 10665 10666 10666 10661 10660 10665 10669 10670 10670 10671 10674 10674 10672 10672 10671 10668 10666 10662 10658 10656 10654 10654 10651 10648 10646 10644 10643 10642 10641 10640
10550 10554 10560 10570 10578 10580 10578 10577 10575 10572 10572 10574 10570 10569 10585 10608 10616 10612 10613 10613 10611 10614 10617 10618 10621 10625 10628 10630 10632 10631 10630 10629 10630 10630 10632 10636 10639 10643 10644 10642 10641 10642 10641 10640 10642 10644 10647 10649 10648 10648 10650 10650 10651 10652 10653 10654 10656 10657 10659 10658 10655 10652 10654 10658 10661 10662 10662 10663 10669 10668 10666 10666 10663 10661 10660 10654 10651 10649 10646 10644 10641 10638 10636 10635 10634 10632 10631 10630
10540 10546 10553 10564 10571 10570 10568 10568 10566 10562 10561 10562 10557 10564 10586 10600 10601 10602 10606 10605 10604 10607 10606 10609 10616 10619 10622 10624 10625 10625 10622 10622 10625 10626 10628 10630 10633 10637 10636 10633 10633 10634 10633 10631 10633 10638 10639 10641 10641 10640 10641 10642 10643 10645 10646 10648 10648 10649 10650 10648 10646 10647 10650 10650 10651 10654 10653 10654 10661 10662 10660 10659 10656 10654 10652 10647 10643 10642 10638 10634 10631 10629 10627 10626 10623 10622 10621 10620
10534 10537 10545 10558 10561 10558 10557 10557 10555 10553 10552 10548 10546 10561 10581 10589 10591 10594 10596 10597 10598 10597 10598 10604 10609 10612 10614 10617 10618 10616 10614 10617 10621 10621 10622 10623 10627 10631 10628 10624 10625 10625 10623 10622 10626 10630 10630 10631 10634 10634 10634 10635 10635 10637 10640 10640 10640 10639 10641 10641 10640 10641 10642 10641 10641 10644 10644 10645 10652 10655 10654 10653 10650 10647 10644 10640 10636 10633 10629 10624 10621 10620 10617 10614 10612 10611 10610 10609
10525 10525 10536 10550 10549 10545 10548 10547 10544 10543 10539 10533 10538 10559 10577 10579 10581 10582 10582 10587 10590 10590 10594 10599 10601 10603 10607 10609 10610 10608 10607 10612 10614 10613 10615 10617 10620 10624 10620 10617 10617 10616 10614 10614 10617 10621 10622 10623 10627 10627 10626 10627 10628 10631 10631 10631 10630 10631 10634 10635 10634 10633 10633 10632 10631 10633 10636 10637 10642 10647 10648 10648 10644 10639 10635 10632 10627 10623 10618 10614 10613 10611 10607 10604 10602 10601 10600 10598
10513 10514 10528 10540 10534 10534 10539 10536 10531 10527 10525 10526 10536 10555 10568 10568 10569 10572 10573 10578 10582 10585 10590 10592 10592 10595 10599 10600 10601 10601 10601 10604 10605 10606 10608 10611 10614 10616 10614 10610 10609 10607 10605 10607 10610 10613 10614 10615 10617 10618 10619 10621 10623 10623 10621 10621 10623 10624 10626 10628 10626 10624 10622 10621 10624 10627 10627 10627 10630 10635 10641 10642 10635 10630 10629 10623 10616 10612 10609 10606 10604 10601 10597 10595 10593 10591 10590 10588
10503 10504 10519 10528 10523 10525 10527 10519 10516 10516 10517 10525 10536 10548 10557 10558 10561 10564 10566 10569 10574 10579 10583 10583 10584 10587 10590 10592 10593 10593 10592 10594 10598 10598 10600 10604 10606 10606 10605 10602 10601 10600 10599 10600 10604 10605 10604 10606 10608 10610 10613 10615 10615 10614 10613 10615 10617 10617 10618 10620 10617 10613 10611 10612 10617 10620 10617 10616 10619 10621 10629 10633 10625 10620 10621 10614 10606 10603 10600 10598 10596 10592 10589 10586 10583 10581 10580 10578
10492 10495 10509 10515 10512 10515 10513 10506 10508 10510 10510 10522 10534 10539 10544 10548 10551 10554 10556 10559 10564 10569 10573 10575 10578 10580 10581 10584 10584 10583 10582 10585 10589 10591 10593 10597 10597 10597 10598 10596 10595 10595 10593 10594 10596 10595 10594 10597 10600 10602 10604 10605 10606 10607 10608 10609 10610 10610 10610 10609 10605 10604 10605 10604 10607 10610 10606 10607 10610 10607 10614 10623 10615 10607 10606 10602 10598 10594 10589 10587 10586 10583 10580 10577 10575 10573 10570 10567
10482 10488 10497 10500 10501 10504 10499 10495 10500 10502 10504 10517 10525 10525 10531 10538 10541 10543 10547 10552 10555 10560 10564 10567 10570 10571 10573 10574 10574 10573 10574 10575 10580 10584 10586 10588 10588 10589 10589 10588 10588 10587 10585 10587 10588 10585 10584 10587 10591 10593 10595 10597 10599 10601 10602 10602 10601 10600 10600 10600 10598 10599 10598 10593 10595 10597 10595 10600 10601 10593 10601 10611 10604 10595 10592 10588 10588 10585 10578 10576 10574 10571 10568 10566 10565 10563 10560 10557
10473 10479 10484 10488 10491 10492 10487 10485 10492 10497 10501 10508 10511 10513 10521 10528 10532 10536 10540 10543 10545 10549 10553 10557 10560 10562 10563 10564 10564 10565 10565 10566 10571 10575 10577 10579 10580 10579 10578 10579 10580 10579 10578 10579 10579 10575 10574 10577 10581 10584 10588 10591 10592 10594 10595 10593 10590 10590 10593 10594 10592 10591 10588 10585 10584 10582 10585 10594 10589 10580 10590 10597 10588 10583 10579 10575 10575 10573 10569 10566 10563 10559 10555 10553 10551 10550 10547 10542
10462 10466 10471 10476 10478 10478 10477 10480 10485 10489 10492 10496 10499 10504 10509 10514 10522 10529 10531 10532 10534 10538 10542 10546 10550 10552 10552 10553 10555 10557 10559 10560 10562 10565 10566 10568 10569 10569 10569 10568 10569 10571 10570 10570 10569 10566 10564 10568 10572 10576 10580 10583 10584 10585 10585 10583 10580 10583 10587 10587 10583 10582 10580 10576 10573 10571 10576 10581 10576 10572 10577 10576 10573 10571 10565 10560 10561 10560 10557 10554 10551 10549 10546 10543 10540 10535 10531 10527
10449 10453 10460 10465 10465 10466 10470 10474 10476 10478 10484 10488 10491 10495 10499 10503 10511 10516 10518 10520 10524 10528 10532 10535 10538 10540 10541 10545 10547 10548 10550 10551 10552 10553 10555 10557 10558 10559 10560 10559 10559 10561 10561 10560 10558 10555 10555 10560 10565 10568 10571 10573 10574 10575 10576 10575 10574 10576 10579 10577 10574 10573 10570 10564 10562 10565 10565 10561 10563 10568 10561 10554 10562 10562 10549 10545 10548 10545 10540 10538 10538 10538 10536 10531 10526 10521 10516 10512
10437 10443 10451 10456 10455 10456 10462 10469 10471 10473 10478 10481 10481 10485 10490 10494 10499 10501 10503 10508 10513 10518 10521 10521 10525 10530 10533 10537 10537 10536 10538 10539 10539 10542 10544 10547 10548 10549 10549 10550 10549 10549 10549 10549 10547 10546 10546 10551 10556 10559 10560 10563 10564 10564 10566 10567 10566 10567 10568 10568 10566 10563 10558 10554 10554 10558 10553 10543 10548 10557 10546 10541 10552 10549 10533 10531 10532 10527 10525 10525 10524 10523 10520 10515 10511 10507 10503 10497
10427 10435 10443 10445 10445 10447 10455 10463 10466 10467 10470 10471 10470 10474 10479 10483 10486 10489 10492 10497 10501 10505 10507 10507 10513 10521 10524 10525 10524 10523 10525 10525 10527 10532 10534 10535 10536 10536 10537 10539 10539 10538 10539 10538 10538 10537 10538 10542 10546 10547 10550 10554 10553 10552 10555 10556 10556 10558 10559 10559 10559 10555 10549 10546 10547 10546 10537 10527 10533 10540 10532 10532 10541 10533 10518 10514 10512 10510 10511 10511 10509 10506 10502 10499 10497 10493 10488 10481
10418 10425 10432 10434 10435 10440 10447 10452 10455 10456 10459 10460 10459 10463 10468 10472 10477 10480 10483 10485 10487 10491 10494 10495 10502 10509 10511 10511 10510 10509 10512 10515 10517 10521 10521 10520 10521 10523 10525 10527 10528 10529 10529 10528 10528 10527 10528 10532 10535 10537 10540 10543 10542 10541 10543 10543 10543 10548 10550 10553 10555 10550 10541 10538 10538 10532 10520 10515 10521 10520 10515 10522 10527 10514 10501 10497 10495 10494 10494 10493 10491 10489 10486 10484 10482 10478 10473 10467
10407 10415 10421 10425 10428 10432 10437 10440 10443 10445 10447 10448 10449 10454 10459 10464 10467 10470 10472 10474 10476 10479 10482 10486 10491 10494 10495 10496 10495 10497 10501 10503 10503 10506 10508 10508 10510 10513 10515 10516 10518 10519 10518 10518 10518 10517 10517 10520 10524 10526 10526 10528 10531 10530 10527 10528 10530 10533 10542 10551 10550 10541 10532 10527 10524 10518 10510 10507 10507 10501 10500 10509 10509 10493 10482 10481 10479 10476 10475 10475 10475 10473 10471 10469 10467 10464 10458 10453
10395 10402 10410 10416 10419 10422 10425 10428 10431 10433 10434 10437 10441 10446 10450 10453 10457 10459 10460 10461 10465 10469 10471 10475 10479 10480 10480 10481 10483 10486 10489 10489 10488 10492 10496 10497 10500 10502 10503 10504 10506 10508 10508 10508 10507 10507 10507 10508 10511 10512 10510 10515 10520 10515 10511 10514 10511 10515 10536 10547 10536 10524 10519 10514 10510 10505 10500 10495 10491 10486 10488 10492 10486 10474 10469 10466 10461 10458 10458 10459 10458 10457 10456 10454 10452 10448 10443 10438
10385 10390 10398 10405 10408 10410 10413 10416 10418 10420 10422 10427 10432 10436 10439 10442 10445 10447 10448 10449 10453 10457 10460 10464 10467 10467 10467 10470 10472 10474 10475 10475 10476 10479 10483 10486 10488 10489 10491 10492 10495 10496 10497 10496 10496 10496 10497 10496 10499 10498 10496 10501 10506 10500 10497 10494 10489 10506 10534 10535 10516 10508 10507 10502 10499 10495 10489 10482 10478 10476 10475 10471 10464 10461 10458 10451 10445 10444 10446 10445 10443 10442 10440 10437 10434 10432 10427 10424